Regional Weather Roundup
Issued by NWS

Home | Current Version | Previous Version | Graphics & Text | Print | Product List | Glossary On
Versions: 1 2 3 4 5 6 7 8 9 10 11 12 13 14 15 16 17 18 19 20 21 22 23 24 25 26 27 28 29 30 31 32 33 34 35 36 37 38 39 40 41 42 43 44 45 46 47 48 49 50
000
ASUS43 KDTX 022201
RWRMI
MICHIGAN HOURLY REGIONAL WEATHER ROUNDUP
NATIONAL WEATHER SERVICE DETROIT/PONTIAC MI
600 PM EDT WED SEP 02 2015

NOTE: "FAIR" INDICATES FEW OR NO CLOUDS BELOW 12,000 FEET WITH NO
SIGNIFICANT WEATHER AND/OR OBSTRUCTION TO VISIBILITY.

MIZ047>049-052>055-059>063-066>070-074>076-081>083-022300-
SOUTHEAST LOWER MICHIGAN

CITY           SKY/WX    TMP DP  RH WIND       PRES   REMARKS
ADRIAN         SUNNY     89  67  47 NW8       29.98F HX  92
ALMA           MOSUNNY   84  62  46 W3        29.95S
ANN ARBOR      SUNNY     88  67  49 NW12G21   29.96F HX  91
BAD AXE        MOSUNNY   86  70  58 CALM      29.93F HX  91
CARO           PTSUNNY   77  70  79 SW6       29.94S
DETROIT CITY   MOSUNNY   90  68  48 NW13G21   29.92F HX  94
DETROIT        MOSUNNY   90  67  46 W16       29.94F HX  93
FLINT          TSTM      82  65  56 NW17G23   29.96S
GROSSE ILE     MOSUNNY   84  75  74 S12       29.92F HX  92
HILLSDALE      SUNNY     82  66  57 SW7       30.01S
HOWELL         MOSUNNY   88  67  49 W10       29.97F HX  90

CITY           SKY/WX    TMP DP  RH WIND       PRES   REMARKS
JACKSON        SUNNY     85  69  58 W8        29.99F
LAMBERTVILLE   MOSUNNY   84  71  63 CALM      29.97F
LANSING        SUNNY     86  70  58 W13       29.97F HX  90
LAPEER         LGT RAIN  72  69  88 W7        29.97R
MASON          SUNNY     86  68  54 W7        29.98F
MONROE         MOSUNNY   88  73  60 SW8       29.94F HX  94
MT. CLEMENS    MOSUNNY   89  71  55 W9        29.91F HX  94
PONTIAC        PTSUNNY   89  69  51 W15       29.95F HX  93
PORT HOPE        N/A     75  72  90 E3        29.92F
PORT HURON     MOSUNNY   82  73  74 CALM      29.94S
TRI CITIES     PTSUNNY   81  72  74 S5        29.94F
MIDLAND        FAIR      82  72  70 S5        29.92S
TROY           SUNNY     90  68  47 W9G18     29.95F HX  94
SAGINAW HB     CLOUDY    75  72  88 S6        29.94F
$$
MIZ043>046-050>051-056>058-064>065-071>073-077>080-022300-
SOUTHWEST LOWER MICHIGAN

CITY           SKY/WX    TMP DP  RH WIND       PRES   REMARKS
BATTLE CREEK   SUNNY     87  69  54 W10       30.00S HX  91
BENTON HARBOR  MOSUNNY   86  69  56 CALM      29.97F HX  90
BIG RAPIDS     SUNNY     87  67  52 W8        29.95S
COLDWATER      MOSUNNY   88  65  45 W8        29.99F
FREMONT        FAIR      84  72  67 SW6       29.96S
HOLLAND        SUNNY     84  69  60 SW5       29.98F
GRAND RAPIDS   MOSUNNY   87  68  52 W8        29.98F HX  90
IONIA          FAIR      87  69  55 W9        29.97S HX  90
KALAMAZOO      MOSUNNY   87  69  54 NW9       29.99F HX  91
LUDINGTON      SUNNY     81  71  71 SW3       29.95F
MARSHALL       SUNNY     87  70  56 W9        29.98F HX  92
MOUNT PLEASANT MOSUNNY   87  70  57 W9        29.93F HX  92
MUSKEGON       PTSUNNY   81  69  67 SW8       29.97F
SOUTH HAVEN    MOSUNNY   84  68  58 SW3       29.98F
$$
MIZ016>042-022300-
NORTHERN LOWER MICHIGAN

CITY           SKY/WX    TMP DP  RH WIND       PRES   REMARKS
ALPENA         LGT RAIN  75  72  90 CALM      29.96R FOG
BEAVER ISLAND  PTSUNNY   76  71  83 NE5       29.93F
BELLAIRE       PTSUNNY   79  68  69 CALM      29.94F
CADILLAC       MOSUNNY   86  71  60 SW7       29.96S HX  91
CHARLEVOIX     PTSUNNY   77  71  83 E3        29.96S
FRANKFORT      CLOUDY    75  71  86 CALM      29.95F FOG
GAYLORD        TSTM      71  68  90 CALM      29.99R FOG
GRAYLING       MOSUNNY   83  69  62 NW8       29.96S
HARBOR SPRINGS CLOUDY    73  69  87 CALM      29.94S
HOUGHTON LAKE  LGT RAIN  77  67  71 N5        29.96R
MANISTEE       SUNNY     82  70  65 W8        29.95F
OSCODA         CLOUDY    72  67  85 NW6       29.93R
PELLSTON       CLOUDY    77  69  76 VRB3      29.94F
ROGERS CITY    CLOUDY    74  69  83 CALM      29.97S
TRAVERSE CITY  CLOUDY    75  69  81 NE6       29.95S
$$
MIZ007>008-015-022300-
EASTERN UPPER MICHIGAN

CITY           SKY/WX    TMP DP  RH WIND       PRES   REMARKS
KINROSS        CLOUDY    72  64  78 N9        29.95F
MACKINAC ISLAN LGT RAIN  74  71  90 E7        29.91F
NEWBERRY       CLOUDY    78  64  63 N10       29.94F
S. S. MARIE    CLOUDY    73  63  70 W6        29.94F
$$
MIZ004>006-011>014-085-022300-
CENTRAL UPPER MICHIGAN

CITY           SKY/WX    TMP DP  RH WIND       PRES   REMARKS
MANISTIQUE     PTSUNNY   78  71  78 CALM      29.94F
ESCANABA       CLOUDY    75  72  88 CALM      29.95R
MENOMINEE      CLOUDY    66  63  88 NE3       29.93F
SAWYER-GWINN   LGT RAIN  72  64  78 E5        29.99S
$$
MIZ001>003-009>011-084-022300-
WESTERN UPPER MICHIGAN

CITY           SKY/WX    TMP DP  RH WIND       PRES   REMARKS
IRON MOUNTAIN  LGT RAIN  72  69  90 E3        29.96F
HOUGHTON       CLOUDY    70  64  81 E3        29.95S
COPPER HARBOR    N/A     68  63  84 CALM      29.95S
IRONWOOD       CLOUDY    68  64  88 N9        29.94R
$$

ABBREVIATIONS USED IN REMARKS
   TC - TEMPERATURE IN CELSIUS
  WCI - WIND CHILL INDEX
   HX - HEAT INDEX
  VSB - VISIBILITY



USA.gov is the U.S. government's official web portal to all federal, state and local government web resources and services.